Year,Month,Day,Hour,Minute,Value (Times are PST for windspeed in km/hr)
2009,03,02,00,00,1.40
2009,03,02,00,01,1.60
2009,03,02,00,02,1.60
2009,03,02,00,03,1.50
2009,03,02,00,04,2.40
2009,03,02,00,05,2.90
2009,03,02,00,06,0.80
2009,03,02,00,07,2.70
2009,03,02,00,08,1.30
2009,03,02,00,09,3.90
2009,03,02,00,10,3.60
2009,03,02,00,11,2.10
2009,03,02,00,12,1.30
2009,03,02,00,13,3.50
2009,03,02,00,14,2.80
2009,03,02,00,15,5.10
2009,03,02,00,16,4.80
2009,03,02,00,17,2.30
2009,03,02,00,18,3.90
2009,03,02,00,19,4.50
2009,03,02,00,20,2.70
2009,03,02,00,21,2.70
2009,03,02,00,22,4.20
2009,03,02,00,23,4.50
2009,03,02,00,24,2.10
2009,03,02,00,25,3.60
2009,03,02,00,26,5.10
2009,03,02,00,27,4.00
2009,03,02,00,28,2.60
2009,03,02,00,29,4.30
2009,03,02,00,30,3.00
2009,03,02,00,31,6.40
2009,03,02,00,32,3.30
2009,03,02,00,33,2.30
2009,03,02,00,34,1.00
2009,03,02,00,35,1.10
2009,03,02,00,36,0.10
2009,03,02,00,37,2.30
2009,03,02,00,38,6.20
2009,03,02,00,39,1.70
2009,03,02,00,40,4.80
2009,03,02,00,41,3.00
2009,03,02,00,42,1.60
2009,03,02,00,43,2.50
2009,03,02,00,44,1.10
2009,03,02,00,45,5.00
2009,03,02,00,46,2.10
2009,03,02,00,47,1.90
2009,03,02,00,48,0.70
2009,03,02,00,49,1.50
2009,03,02,00,50,0.90
2009,03,02,00,51,1.00
2009,03,02,00,52,0.30
2009,03,02,00,53,1.10
2009,03,02,00,54,7.70
2009,03,02,00,55,4.40
2009,03,02,00,56,0.90
2009,03,02,00,57,0.50
2009,03,02,00,58,0.00
2009,03,02,00,59,0.70
2009,03,02,01,00,1.80
2009,03,02,01,01,2.40
2009,03,02,01,02,4.30
2009,03,02,01,03,1.10
2009,03,02,01,04,3.80
2009,03,02,01,05,1.00
2009,03,02,01,06,1.40
2009,03,02,01,07,0.00
2009,03,02,01,08,4.10
2009,03,02,01,09,0.60
2009,03,02,01,10,0.10
2009,03,02,01,11,0.80
2009,03,02,01,12,0.80
2009,03,02,01,13,1.60
2009,03,02,01,14,6.00
2009,03,02,01,15,3.70
2009,03,02,01,16,0.10
2009,03,02,01,17,3.10
2009,03,02,01,18,1.80
2009,03,02,01,19,2.40
2009,03,02,01,20,1.20
2009,03,02,01,21,1.60
2009,03,02,01,22,3.50
2009,03,02,01,23,2.40
2009,03,02,01,24,0.60
2009,03,02,01,25,1.70
2009,03,02,01,26,0.10
2009,03,02,01,27,3.80
2009,03,02,01,28,3.90
2009,03,02,01,29,3.30
2009,03,02,01,30,2.10
2009,03,02,01,31,0.40
2009,03,02,01,32,2.00
2009,03,02,01,33,0.90
2009,03,02,01,34,1.60
2009,03,02,01,35,3.80
2009,03,02,01,36,1.10
2009,03,02,01,37,1.20
2009,03,02,01,38,6.40
2009,03,02,01,39,0.60
2009,03,02,01,40,0.90
2009,03,02,01,41,0.20
2009,03,02,01,42,0.30
2009,03,02,01,43,1.10
2009,03,02,01,44,0.00
2009,03,02,01,45,2.20
2009,03,02,01,46,3.10
2009,03,02,01,47,5.50
2009,03,02,01,48,5.60
2009,03,02,01,49,8.30
2009,03,02,01,50,4.60
2009,03,02,01,51,4.10
2009,03,02,01,52,1.30
2009,03,02,01,53,1.40
2009,03,02,01,54,3.60
2009,03,02,01,55,3.90
2009,03,02,01,56,3.90
2009,03,02,01,57,2.90
2009,03,02,01,58,3.50
2009,03,02,01,59,5.00
2009,03,02,02,00,6.90
2009,03,02,02,01,3.00
2009,03,02,02,02,5.00
2009,03,02,02,03,6.70
2009,03,02,02,04,5.00
2009,03,02,02,05,0.30
2009,03,02,02,06,2.00
2009,03,02,02,07,0.90
2009,03,02,02,08,1.90
2009,03,02,02,09,0.80
2009,03,02,02,10,4.10
2009,03,02,02,11,4.60
2009,03,02,02,12,3.20
2009,03,02,02,13,0.60
2009,03,02,02,14,1.80
2009,03,02,02,15,2.10
2009,03,02,02,16,1.00
2009,03,02,02,17,0.50
2009,03,02,02,18,3.40
2009,03,02,02,19,2.70
2009,03,02,02,20,2.20
2009,03,02,02,21,1.90
2009,03,02,02,22,2.80
2009,03,02,02,23,3.40
2009,03,02,02,24,0.30
2009,03,02,02,25,1.60
2009,03,02,02,26,1.00
2009,03,02,02,27,4.40
2009,03,02,02,28,0.90
2009,03,02,02,29,0.10
2009,03,02,02,30,1.90
2009,03,02,02,31,1.20
2009,03,02,02,32,0.50
2009,03,02,02,33,0.40
2009,03,02,02,34,3.90
2009,03,02,02,35,4.90
2009,03,02,02,36,2.60
2009,03,02,02,37,0.00
2009,03,02,02,38,1.60
2009,03,02,02,39,1.10
2009,03,02,02,40,5.20
2009,03,02,02,41,3.40
2009,03,02,02,42,0.90
2009,03,02,02,43,0.40
2009,03,02,02,44,3.30
2009,03,02,02,45,2.40
2009,03,02,02,46,0.30
2009,03,02,02,47,5.10
2009,03,02,02,48,2.30
2009,03,02,02,49,3.20
2009,03,02,02,50,0.80
2009,03,02,02,51,1.00
2009,03,02,02,52,1.50
2009,03,02,02,53,0.90
2009,03,02,02,54,1.00
2009,03,02,02,55,1.30
2009,03,02,02,56,1.50
2009,03,02,02,57,3.30
2009,03,02,02,58,1.10
2009,03,02,02,59,1.00
2009,03,02,03,00,0.10
2009,03,02,03,01,0.90
2009,03,02,03,02,0.60
2009,03,02,03,03,2.20
2009,03,02,03,04,1.00
2009,03,02,03,05,2.30
2009,03,02,03,06,0.50
2009,03,02,03,07,0.00
2009,03,02,03,08,0.00
2009,03,02,03,09,0.00
2009,03,02,03,10,0.00
2009,03,02,03,11,0.00
2009,03,02,03,12,0.00
2009,03,02,03,13,0.50
2009,03,02,03,14,0.00
2009,03,02,03,15,0.00
2009,03,02,03,16,0.10
2009,03,02,03,17,0.00
2009,03,02,03,18,0.00
2009,03,02,03,19,0.00
2009,03,02,03,20,0.10
2009,03,02,03,21,0.90
2009,03,02,03,22,0.00
2009,03,02,03,23,0.00
2009,03,02,03,24,1.00
2009,03,02,03,25,1.50
2009,03,02,03,26,0.20
2009,03,02,03,27,0.20
2009,03,02,03,28,1.50
2009,03,02,03,29,2.80
2009,03,02,03,30,2.50
2009,03,02,03,31,1.40
2009,03,02,03,32,0.40
2009,03,02,03,33,0.50
2009,03,02,03,34,0.30
2009,03,02,03,35,0.00
2009,03,02,03,36,0.60
2009,03,02,03,37,0.00
2009,03,02,03,38,0.60
2009,03,02,03,39,1.30
2009,03,02,03,40,1.50
2009,03,02,03,41,0.00
2009,03,02,03,42,1.60
2009,03,02,03,43,1.00
2009,03,02,03,44,0.30
2009,03,02,03,45,0.00
2009,03,02,03,46,0.30
2009,03,02,03,47,2.30
2009,03,02,03,48,4.10
2009,03,02,03,49,1.20
2009,03,02,03,50,2.00
2009,03,02,03,51,1.50
2009,03,02,03,52,0.50
2009,03,02,03,53,0.20
2009,03,02,03,54,1.30
2009,03,02,03,55,0.60
2009,03,02,03,56,0.10
2009,03,02,03,57,0.00
2009,03,02,03,58,0.60
2009,03,02,03,59,2.00
2009,03,02,04,00,0.20
2009,03,02,04,01,0.10
2009,03,02,04,02,0.00
2009,03,02,04,03,1.20
2009,03,02,04,04,0.70
2009,03,02,04,05,0.00
2009,03,02,04,06,0.20
2009,03,02,04,07,3.30
2009,03,02,04,08,1.10
2009,03,02,04,09,0.20
2009,03,02,04,10,0.10
2009,03,02,04,11,0.00
2009,03,02,04,12,0.40
2009,03,02,04,13,0.60
2009,03,02,04,14,0.10
2009,03,02,04,15,1.10
2009,03,02,04,16,0.00
2009,03,02,04,17,1.10
2009,03,02,04,18,2.30
2009,03,02,04,19,2.90
2009,03,02,04,20,2.70
2009,03,02,04,21,1.20
2009,03,02,04,22,0.80
2009,03,02,04,23,1.00
2009,03,02,04,24,0.00
2009,03,02,04,25,0.20
2009,03,02,04,26,1.90
2009,03,02,04,27,0.20
2009,03,02,04,28,0.70
2009,03,02,04,29,0.90
2009,03,02,04,30,2.10
2009,03,02,04,31,1.80
2009,03,02,04,32,3.40
2009,03,02,04,33,2.50
2009,03,02,04,34,2.40
2009,03,02,04,35,0.20
2009,03,02,04,36,0.00
2009,03,02,04,37,0.00
2009,03,02,04,38,0.00
2009,03,02,04,39,0.00
2009,03,02,04,40,2.80
2009,03,02,04,41,4.70
2009,03,02,04,42,1.50
2009,03,02,04,43,1.90
2009,03,02,04,44,0.10
2009,03,02,04,45,0.00
2009,03,02,04,46,0.00
2009,03,02,04,47,0.00
2009,03,02,04,48,0.90
2009,03,02,04,49,0.30
2009,03,02,04,50,1.00
2009,03,02,04,51,0.10
2009,03,02,04,52,1.20
2009,03,02,04,53,2.40
2009,03,02,04,54,3.10
2009,03,02,04,55,0.30
2009,03,02,04,56,3.40
2009,03,02,04,57,0.00
2009,03,02,04,58,0.00
2009,03,02,04,59,0.60
2009,03,02,05,00,5.20
2009,03,02,05,01,0.40
2009,03,02,05,02,0.30
2009,03,02,05,03,0.40
2009,03,02,05,04,0.00
2009,03,02,05,05,0.50
2009,03,02,05,06,0.80
2009,03,02,05,07,1.00
2009,03,02,05,08,0.00
2009,03,02,05,09,0.40
2009,03,02,05,10,1.50
2009,03,02,05,11,0.90
2009,03,02,05,12,1.20
2009,03,02,05,13,0.60
2009,03,02,05,14,0.60
2009,03,02,05,15,3.10
2009,03,02,05,16,2.10
2009,03,02,05,17,1.70
2009,03,02,05,18,4.90
2009,03,02,05,19,5.10
2009,03,02,05,20,1.50
2009,03,02,05,21,0.60
2009,03,02,05,22,0.00
2009,03,02,05,23,0.60
2009,03,02,05,24,1.90
2009,03,02,05,25,2.00
2009,03,02,05,26,0.90
2009,03,02,05,27,0.40
2009,03,02,05,28,0.00
2009,03,02,05,29,1.20
2009,03,02,05,30,0.70
2009,03,02,05,31,0.70
2009,03,02,05,32,0.10
2009,03,02,05,33,0.00
2009,03,02,05,34,0.00
2009,03,02,05,35,0.10
2009,03,02,05,36,0.00
2009,03,02,05,37,0.80
2009,03,02,05,38,1.00
2009,03,02,05,39,0.60
2009,03,02,05,40,0.00
2009,03,02,05,41,0.00
2009,03,02,05,42,0.00
2009,03,02,05,43,0.00
2009,03,02,05,44,1.70
2009,03,02,05,45,2.00
2009,03,02,05,46,0.20
2009,03,02,05,47,0.00
2009,03,02,05,48,0.40
2009,03,02,05,49,0.20
2009,03,02,05,50,0.00
2009,03,02,05,51,0.00
2009,03,02,05,52,0.00
2009,03,02,05,53,0.00
2009,03,02,05,54,0.10
2009,03,02,05,55,0.00
2009,03,02,05,56,0.10
2009,03,02,05,57,0.00
2009,03,02,05,58,0.00
2009,03,02,05,59,0.00
2009,03,02,06,00,0.00
2009,03,02,06,01,0.20
2009,03,02,06,02,0.00
2009,03,02,06,03,1.10
2009,03,02,06,04,0.20
2009,03,02,06,05,0.00
2009,03,02,06,06,0.00
2009,03,02,06,07,2.30
2009,03,02,06,08,5.10
2009,03,02,06,09,3.70
2009,03,02,06,10,3.80
2009,03,02,06,11,1.40
2009,03,02,06,12,0.80
2009,03,02,06,13,0.00
2009,03,02,06,14,0.00
2009,03,02,06,15,0.40
2009,03,02,06,16,1.90
2009,03,02,06,17,3.60
2009,03,02,06,18,4.70
2009,03,02,06,19,3.80
2009,03,02,06,20,2.20
2009,03,02,06,21,1.10
2009,03,02,06,22,0.30
2009,03,02,06,23,0.10
2009,03,02,06,24,0.00
2009,03,02,06,25,0.00
2009,03,02,06,26,0.00
2009,03,02,06,27,0.00
2009,03,02,06,28,0.00
2009,03,02,06,29,0.00
2009,03,02,06,30,0.00
2009,03,02,06,31,0.10
2009,03,02,06,32,0.00
2009,03,02,06,33,0.20
2009,03,02,06,34,1.30
2009,03,02,06,35,0.00
2009,03,02,06,36,0.00
2009,03,02,06,37,0.00
2009,03,02,06,38,0.00
2009,03,02,06,39,0.00
2009,03,02,06,40,0.00
2009,03,02,06,41,0.00
2009,03,02,06,42,0.30
2009,03,02,06,43,0.40
2009,03,02,06,44,0.10
2009,03,02,06,45,0.00
2009,03,02,06,46,0.00
2009,03,02,06,47,0.00
2009,03,02,06,48,0.00
2009,03,02,06,49,0.00
2009,03,02,06,50,0.20
2009,03,02,06,51,1.40
2009,03,02,06,52,2.20
2009,03,02,06,53,0.40
2009,03,02,06,54,1.80
2009,03,02,06,55,0.30
2009,03,02,06,56,0.00
2009,03,02,06,57,0.00
2009,03,02,06,58,0.00
2009,03,02,06,59,0.00
2009,03,02,07,00,1.20
2009,03,02,07,01,0.00
2009,03,02,07,02,0.00
2009,03,02,07,03,0.00
2009,03,02,07,04,0.00
2009,03,02,07,05,0.10
2009,03,02,07,06,0.00
2009,03,02,07,07,0.00
2009,03,02,07,08,0.00
2009,03,02,07,09,0.00
2009,03,02,07,10,0.00
2009,03,02,07,11,0.20
2009,03,02,07,12,0.00
2009,03,02,07,13,1.00
2009,03,02,07,14,2.40
2009,03,02,07,15,3.00
2009,03,02,07,16,1.70
2009,03,02,07,17,0.70
2009,03,02,07,18,0.00
2009,03,02,07,19,0.20
2009,03,02,07,20,1.20
2009,03,02,07,21,1.10
2009,03,02,07,22,0.10
2009,03,02,07,23,1.20
2009,03,02,07,24,0.30
2009,03,02,07,25,0.00
2009,03,02,07,26,0.00
2009,03,02,07,27,0.00
2009,03,02,07,28,0.00
2009,03,02,07,29,0.60
2009,03,02,07,30,0.00
2009,03,02,07,31,0.00
2009,03,02,07,32,0.00
2009,03,02,07,33,1.00
2009,03,02,07,34,0.70
2009,03,02,07,35,4.80
2009,03,02,07,36,2.90
2009,03,02,07,37,4.40
2009,03,02,07,38,3.40
2009,03,02,07,39,3.20
2009,03,02,07,40,3.10
2009,03,02,07,41,4.70
2009,03,02,07,42,5.10
2009,03,02,07,43,4.60
2009,03,02,07,44,3.70
2009,03,02,07,45,7.40
2009,03,02,07,46,4.00
2009,03,02,07,47,3.10
2009,03,02,07,48,8.80
2009,03,02,07,49,10.50
2009,03,02,07,50,13.50
2009,03,02,07,51,11.30
2009,03,02,07,52,16.20
2009,03,02,07,53,14.40
2009,03,02,07,54,10.90
2009,03,02,07,55,10.00
2009,03,02,07,56,26.50
2009,03,02,07,57,28.50
2009,03,02,07,58,15.10
2009,03,02,07,59,13.00
2009,03,02,08,00,13.40
2009,03,02,08,01,12.20
2009,03,02,08,02,22.30
2009,03,02,08,03,16.00
2009,03,02,08,04,24.20
2009,03,02,08,05,17.10
2009,03,02,08,06,12.70
2009,03,02,08,07,14.50
2009,03,02,08,08,10.80
2009,03,02,08,09,11.50
2009,03,02,08,10,13.70
2009,03,02,08,11,9.10
2009,03,02,08,12,6.30
2009,03,02,08,13,9.30
2009,03,02,08,14,9.40
2009,03,02,08,15,5.80
2009,03,02,08,16,6.80
2009,03,02,08,17,8.30
2009,03,02,08,18,10.30
2009,03,02,08,19,10.10
2009,03,02,08,20,7.10
2009,03,02,08,21,11.00
2009,03,02,08,22,17.40
2009,03,02,08,23,15.70
2009,03,02,08,24,10.00
2009,03,02,08,25,7.20
2009,03,02,08,26,5.20
2009,03,02,08,27,12.50
2009,03,02,08,28,11.60
2009,03,02,08,29,11.20
2009,03,02,08,30,12.90
2009,03,02,08,31,11.30
2009,03,02,08,32,16.10
2009,03,02,08,33,8.60
2009,03,02,08,34,9.70
2009,03,02,08,35,6.90
2009,03,02,08,36,13.50
2009,03,02,08,37,11.30
2009,03,02,08,38,10.20
2009,03,02,08,39,3.10
2009,03,02,08,40,10.00
2009,03,02,08,41,10.80
2009,03,02,08,42,13.40
2009,03,02,08,43,11.00
2009,03,02,08,44,7.20
2009,03,02,08,45,9.40
2009,03,02,08,46,8.70
2009,03,02,08,47,13.80
2009,03,02,08,48,14.80
2009,03,02,08,49,6.00
2009,03,02,08,50,7.20
2009,03,02,08,51,5.50
2009,03,02,08,52,6.90
2009,03,02,08,53,7.60
2009,03,02,08,54,17.50
2009,03,02,08,55,11.00
2009,03,02,08,56,6.80
2009,03,02,08,57,10.90
2009,03,02,08,58,12.30
2009,03,02,08,59,10.50
2009,03,02,09,00,11.40
2009,03,02,09,01,12.20
2009,03,02,09,02,6.40
2009,03,02,09,03,9.30
2009,03,02,09,04,14.40
2009,03,02,09,05,14.20
2009,03,02,09,06,16.30
2009,03,02,09,07,9.60
2009,03,02,09,08,7.90
2009,03,02,09,09,5.20
2009,03,02,09,10,8.70
2009,03,02,09,11,8.90
2009,03,02,09,12,6.00
2009,03,02,09,13,8.30
2009,03,02,09,14,7.80
2009,03,02,09,15,14.40
2009,03,02,09,16,13.80
2009,03,02,09,17,10.00
2009,03,02,09,18,11.50
2009,03,02,09,19,15.50
2009,03,02,09,20,7.50
2009,03,02,09,21,6.50
2009,03,02,09,22,10.60
2009,03,02,09,23,8.50
2009,03,02,09,24,9.10
2009,03,02,09,25,12.50
2009,03,02,09,26,11.90
2009,03,02,09,27,8.00
2009,03,02,09,28,10.50
2009,03,02,09,29,6.50
2009,03,02,09,30,7.80
2009,03,02,09,31,10.80
2009,03,02,09,32,18.00
2009,03,02,09,33,15.00
2009,03,02,09,34,10.30
2009,03,02,09,35,8.60
2009,03,02,09,36,6.70
2009,03,02,09,37,8.20
2009,03,02,09,38,12.20
2009,03,02,09,39,11.90
2009,03,02,09,40,7.40
2009,03,02,09,41,8.60
2009,03,02,09,42,10.00
2009,03,02,09,43,10.60
2009,03,02,09,44,13.00
2009,03,02,09,45,15.40
2009,03,02,09,46,15.00
2009,03,02,09,47,11.60
2009,03,02,09,48,15.50
2009,03,02,09,49,17.10
2009,03,02,09,50,10.00
2009,03,02,09,51,14.30
2009,03,02,09,52,11.20
2009,03,02,09,53,9.70
2009,03,02,09,54,14.30
2009,03,02,09,55,7.90
2009,03,02,09,56,9.50
2009,03,02,09,57,17.90
2009,03,02,09,58,14.20
2009,03,02,09,59,5.60
2009,03,02,10,00,9.40
2009,03,02,10,01,10.10
2009,03,02,10,02,13.30
2009,03,02,10,03,15.60
2009,03,02,10,04,19.60
2009,03,02,10,05,16.80
2009,03,02,10,06,14.80
2009,03,02,10,07,13.10
2009,03,02,10,08,11.40
2009,03,02,10,09,6.80
2009,03,02,10,10,11.30
2009,03,02,10,11,18.20
2009,03,02,10,12,11.70
2009,03,02,10,13,10.90
2009,03,02,10,14,9.40
2009,03,02,10,15,7.30
2009,03,02,10,16,6.30
2009,03,02,10,17,10.30
2009,03,02,10,18,8.00
2009,03,02,10,19,5.00
2009,03,02,10,20,3.10
2009,03,02,10,21,13.20
2009,03,02,10,22,12.70
2009,03,02,10,23,7.40
2009,03,02,10,24,3.20
2009,03,02,10,25,4.70
2009,03,02,10,26,6.90
2009,03,02,10,27,6.10
2009,03,02,10,28,6.80
2009,03,02,10,29,4.30
2009,03,02,10,30,4.10
2009,03,02,10,31,5.20
2009,03,02,10,32,5.40
2009,03,02,10,33,3.60
2009,03,02,10,34,0.50
2009,03,02,10,35,2.40
2009,03,02,10,36,3.30
2009,03,02,10,37,3.00
2009,03,02,10,38,2.20
2009,03,02,10,39,1.90
2009,03,02,10,40,4.80
2009,03,02,10,41,4.80
2009,03,02,10,42,3.40
2009,03,02,10,43,6.40
2009,03,02,10,44,5.80
2009,03,02,10,45,4.00
2009,03,02,10,46,5.20
2009,03,02,10,47,8.10
2009,03,02,10,48,5.80
2009,03,02,10,49,3.60
2009,03,02,10,50,5.10
2009,03,02,10,51,2.50
2009,03,02,10,52,2.90
2009,03,02,10,53,4.00
2009,03,02,10,54,3.00
2009,03,02,10,55,4.00
2009,03,02,10,56,1.50
2009,03,02,10,57,0.20
2009,03,02,10,58,3.10
2009,03,02,10,59,5.10
2009,03,02,11,00,4.80
2009,03,02,11,01,3.00
2009,03,02,11,02,2.10
2009,03,02,11,03,4.30
2009,03,02,11,04,4.20
2009,03,02,11,05,2.30
2009,03,02,11,06,5.20
2009,03,02,11,07,3.60
2009,03,02,11,08,3.90
2009,03,02,11,09,4.80
2009,03,02,11,10,9.00
2009,03,02,11,11,3.20
2009,03,02,11,12,5.10
2009,03,02,11,13,5.00
2009,03,02,11,14,5.60
2009,03,02,11,15,5.80
2009,03,02,11,16,4.70
2009,03,02,11,17,3.90
2009,03,02,11,18,8.00
2009,03,02,11,19,4.50
2009,03,02,11,20,3.00
2009,03,02,11,21,2.50
2009,03,02,11,22,5.70
2009,03,02,11,23,6.30
2009,03,02,11,24,4.20
2009,03,02,11,25,2.60
2009,03,02,11,26,4.90
2009,03,02,11,27,8.50
2009,03,02,11,28,7.30
2009,03,02,11,29,3.70
2009,03,02,11,30,1.90
2009,03,02,11,31,1.20
2009,03,02,11,32,0.80
2009,03,02,11,33,2.60
2009,03,02,11,34,3.20
2009,03,02,11,35,6.30
2009,03,02,11,36,2.60
2009,03,02,11,37,4.70
2009,03,02,11,38,5.30
2009,03,02,11,39,2.70
2009,03,02,11,40,2.10
2009,03,02,11,41,1.50
2009,03,02,11,42,3.80
2009,03,02,11,43,2.90
2009,03,02,11,44,4.40
2009,03,02,11,45,5.40
2009,03,02,11,46,6.40
2009,03,02,11,47,4.60
2009,03,02,11,48,3.90
2009,03,02,11,49,6.90
2009,03,02,11,50,6.60
2009,03,02,11,51,8.00
2009,03,02,11,52,6.60
2009,03,02,11,53,7.30
2009,03,02,11,54,1.60
2009,03,02,11,55,6.00
2009,03,02,11,56,2.70
2009,03,02,11,57,4.00
2009,03,02,11,58,3.60
2009,03,02,11,59,2.50
2009,03,02,12,00,6.90
2009,03,02,12,01,3.60
2009,03,02,12,02,7.20
2009,03,02,12,03,4.80
2009,03,02,12,04,2.50
2009,03,02,12,05,3.30
2009,03,02,12,06,4.00
2009,03,02,12,07,0.60
2009,03,02,12,08,2.70
2009,03,02,12,09,6.10
2009,03,02,12,10,2.30
2009,03,02,12,11,1.10
2009,03,02,12,12,1.40
2009,03,02,12,13,3.50
2009,03,02,12,14,4.60
2009,03,02,12,15,2.80
2009,03,02,12,16,3.30
2009,03,02,12,17,2.80
2009,03,02,12,18,3.50
2009,03,02,12,19,4.70
2009,03,02,12,20,0.90
2009,03,02,12,21,1.90
2009,03,02,12,22,2.00
2009,03,02,12,23,2.50
2009,03,02,12,24,2.40
2009,03,02,12,25,2.30
2009,03,02,12,26,0.20
2009,03,02,12,27,0.40
2009,03,02,12,28,1.90
2009,03,02,12,29,2.80
2009,03,02,12,30,4.20
2009,03,02,12,31,1.40
2009,03,02,12,32,3.20
2009,03,02,12,33,2.20
2009,03,02,12,34,2.00
2009,03,02,12,35,0.10
2009,03,02,12,36,2.10
2009,03,02,12,37,1.00
2009,03,02,12,38,0.90
2009,03,02,12,39,0.70
2009,03,02,12,40,0.60
2009,03,02,12,41,0.90
2009,03,02,12,42,0.40
2009,03,02,12,43,2.70
2009,03,02,12,44,0.30
2009,03,02,12,45,1.90
2009,03,02,12,46,1.90
2009,03,02,12,47,1.90
2009,03,02,12,48,0.50
2009,03,02,12,49,1.00
2009,03,02,12,50,0.50
2009,03,02,12,51,0.20
2009,03,02,12,52,1.90
2009,03,02,12,53,0.90
2009,03,02,12,54,4.10
2009,03,02,12,55,3.10
2009,03,02,12,56,4.60
2009,03,02,12,57,5.80
2009,03,02,12,58,2.70
2009,03,02,12,59,2.60
2009,03,02,13,00,1.40
2009,03,02,13,01,2.20
2009,03,02,13,02,2.00
2009,03,02,13,03,0.70
2009,03,02,13,04,4.00
2009,03,02,13,05,0.90
2009,03,02,13,06,4.30
2009,03,02,13,07,5.10
2009,03,02,13,08,3.50
2009,03,02,13,09,1.40
2009,03,02,13,10,2.20
2009,03,02,13,11,0.50
2009,03,02,13,12,2.30
2009,03,02,13,13,4.50
2009,03,02,13,14,5.90
2009,03,02,13,15,3.70
2009,03,02,13,16,0.30
2009,03,02,13,17,2.10
2009,03,02,13,18,0.20
2009,03,02,13,19,0.20
2009,03,02,13,20,1.00
2009,03,02,13,21,3.40
2009,03,02,13,22,0.70
2009,03,02,13,23,1.40
2009,03,02,13,24,2.40
2009,03,02,13,25,3.70
2009,03,02,13,26,1.30
2009,03,02,13,27,5.50
2009,03,02,13,28,2.30
2009,03,02,13,29,0.90
2009,03,02,13,30,6.00
2009,03,02,13,31,6.20
2009,03,02,13,32,2.20
2009,03,02,13,33,1.70
2009,03,02,13,34,0.30
2009,03,02,13,35,1.80
2009,03,02,13,36,0.20
2009,03,02,13,37,0.00
2009,03,02,13,38,0.50
2009,03,02,13,39,4.30
2009,03,02,13,40,2.80
2009,03,02,13,41,4.30
2009,03,02,13,42,4.10
2009,03,02,13,43,3.00
2009,03,02,13,44,3.60
2009,03,02,13,45,0.50
2009,03,02,13,46,1.80
2009,03,02,13,47,2.30
2009,03,02,13,48,1.50
2009,03,02,13,49,2.70
2009,03,02,13,50,4.30
2009,03,02,13,51,3.50
2009,03,02,13,52,2.60
2009,03,02,13,53,4.80
2009,03,02,13,54,4.70
2009,03,02,13,55,3.20
2009,03,02,13,56,5.40
2009,03,02,13,57,6.30
2009,03,02,13,58,4.50
2009,03,02,13,59,1.10
2009,03,02,14,00,10.20
2009,03,02,14,01,10.30
2009,03,02,14,02,8.40
2009,03,02,14,03,9.70
2009,03,02,14,04,5.90
2009,03,02,14,05,2.90
2009,03,02,14,06,7.20
2009,03,02,14,07,9.00
2009,03,02,14,08,7.50
2009,03,02,14,09,4.00
2009,03,02,14,10,3.30
2009,03,02,14,11,3.00
2009,03,02,14,12,4.20
2009,03,02,14,13,4.20
2009,03,02,14,14,2.30
2009,03,02,14,15,4.70
2009,03,02,14,16,5.10
2009,03,02,14,17,5.60
2009,03,02,14,18,7.80
2009,03,02,14,19,4.30
2009,03,02,14,20,2.30
2009,03,02,14,21,2.10
2009,03,02,14,22,1.40
2009,03,02,14,23,0.30
2009,03,02,14,24,2.60
2009,03,02,14,25,1.70
2009,03,02,14,26,1.00
2009,03,02,14,27,1.40
2009,03,02,14,28,0.70
2009,03,02,14,29,4.30
2009,03,02,14,30,4.60
2009,03,02,14,31,2.80
2009,03,02,14,32,2.00
2009,03,02,14,33,5.70
2009,03,02,14,34,6.40
2009,03,02,14,35,4.60
2009,03,02,14,36,6.00
2009,03,02,14,37,3.60
2009,03,02,14,38,2.70
2009,03,02,14,39,2.20
2009,03,02,14,40,2.90
2009,03,02,14,41,3.60
2009,03,02,14,42,1.00
2009,03,02,14,43,2.00
2009,03,02,14,44,2.50
2009,03,02,14,45,1.30
2009,03,02,14,46,5.70
2009,03,02,14,47,1.90
2009,03,02,14,48,1.10
2009,03,02,14,49,2.00
2009,03,02,14,50,1.80
2009,03,02,14,51,2.30
2009,03,02,14,52,0.60
2009,03,02,14,53,1.50
2009,03,02,14,54,0.60
2009,03,02,14,55,0.10
2009,03,02,14,56,1.40
2009,03,02,14,57,0.90
2009,03,02,14,58,1.60
2009,03,02,14,59,1.10
2009,03,02,15,00,2.30
2009,03,02,15,01,0.10
2009,03,02,15,02,1.10
2009,03,02,15,03,2.40
2009,03,02,15,04,1.10
2009,03,02,15,05,1.60
2009,03,02,15,06,1.90
2009,03,02,15,07,3.60
2009,03,02,15,08,0.80
2009,03,02,15,09,1.30
2009,03,02,15,10,0.80
2009,03,02,15,11,1.30
2009,03,02,15,12,2.50
2009,03,02,15,13,2.30
2009,03,02,15,14,0.90
2009,03,02,15,15,0.00
2009,03,02,15,16,0.20
2009,03,02,15,17,0.30
2009,03,02,15,18,0.00
2009,03,02,15,19,0.30
2009,03,02,15,20,2.20
2009,03,02,15,21,0.40
2009,03,02,15,22,1.90
2009,03,02,15,23,0.30
2009,03,02,15,24,0.40
2009,03,02,15,25,2.60
2009,03,02,15,26,1.60
2009,03,02,15,27,0.00
2009,03,02,15,28,3.00
2009,03,02,15,29,0.90
2009,03,02,15,30,0.60
2009,03,02,15,31,0.30
2009,03,02,15,32,0.30
2009,03,02,15,33,1.80
2009,03,02,15,34,0.00
2009,03,02,15,35,0.10
2009,03,02,15,36,0.20
2009,03,02,15,37,0.00
2009,03,02,15,38,0.00
2009,03,02,15,39,0.70
2009,03,02,15,40,0.30
2009,03,02,15,41,1.70
2009,03,02,15,42,1.50
2009,03,02,15,43,0.20
2009,03,02,15,44,0.40
2009,03,02,15,45,0.40
2009,03,02,15,46,0.30
2009,03,02,15,47,0.80
2009,03,02,15,48,0.20
2009,03,02,15,49,0.00
2009,03,02,15,50,0.00
2009,03,02,15,51,0.00
2009,03,02,15,52,0.00
2009,03,02,15,53,0.30
2009,03,02,15,54,0.00
2009,03,02,15,55,0.10
2009,03,02,15,56,0.00
2009,03,02,15,57,0.10
2009,03,02,15,58,1.30
2009,03,02,15,59,0.40
2009,03,02,16,00,1.60
2009,03,02,16,01,0.10
2009,03,02,16,02,0.40
2009,03,02,16,03,3.20
2009,03,02,16,04,1.70
2009,03,02,16,05,1.90
2009,03,02,16,06,1.20
2009,03,02,16,07,0.00
2009,03,02,16,08,0.10
2009,03,02,16,09,1.40
2009,03,02,16,10,0.20
2009,03,02,16,11,1.50
2009,03,02,16,12,2.20
2009,03,02,16,13,0.90
2009,03,02,16,14,1.20
2009,03,02,16,15,0.10
2009,03,02,16,16,0.10
2009,03,02,16,17,1.20
2009,03,02,16,18,1.40
2009,03,02,16,19,0.90
2009,03,02,16,20,0.90
2009,03,02,16,21,0.30
2009,03,02,16,22,0.20
2009,03,02,16,23,0.00
2009,03,02,16,24,0.00
2009,03,02,16,25,0.00
2009,03,02,16,26,0.10
2009,03,02,16,27,0.00
2009,03,02,16,28,0.00
2009,03,02,16,29,0.00
2009,03,02,16,30,0.00
2009,03,02,16,31,0.00
2009,03,02,16,32,0.00
2009,03,02,16,33,0.00
2009,03,02,16,34,0.00
2009,03,02,16,35,0.00
2009,03,02,16,36,0.20
2009,03,02,16,37,0.30
2009,03,02,16,38,0.00
2009,03,02,16,39,0.00
2009,03,02,16,40,0.00
2009,03,02,16,41,0.00
2009,03,02,16,42,0.10
2009,03,02,16,43,0.20
2009,03,02,16,44,0.00
2009,03,02,16,45,0.00
2009,03,02,16,46,0.00
2009,03,02,16,47,0.00
2009,03,02,16,48,0.00
2009,03,02,16,49,0.00
2009,03,02,16,50,0.00
2009,03,02,16,51,0.00
2009,03,02,16,52,0.00
2009,03,02,16,53,0.00
2009,03,02,16,54,0.00
2009,03,02,16,55,0.00
2009,03,02,16,56,0.00
2009,03,02,16,57,0.00
2009,03,02,16,58,0.00
2009,03,02,16,59,0.00
2009,03,02,17,00,0.00
2009,03,02,17,01,0.00
2009,03,02,17,02,0.00
2009,03,02,17,03,0.00
2009,03,02,17,04,0.00
2009,03,02,17,05,0.00
2009,03,02,17,06,0.00
2009,03,02,17,07,0.00
2009,03,02,17,08,0.00
2009,03,02,17,09,0.00
2009,03,02,17,10,0.00
2009,03,02,17,11,0.00
2009,03,02,17,12,0.00
2009,03,02,17,13,0.00
2009,03,02,17,14,0.00
2009,03,02,17,15,0.00
2009,03,02,17,16,0.00
2009,03,02,17,17,0.00
2009,03,02,17,18,0.00
2009,03,02,17,19,0.00
2009,03,02,17,20,0.00
2009,03,02,17,21,0.00
2009,03,02,17,22,0.00
2009,03,02,17,23,0.00
2009,03,02,17,24,0.00
2009,03,02,17,25,0.00
2009,03,02,17,26,0.00
2009,03,02,17,27,0.00
2009,03,02,17,28,0.00
2009,03,02,17,29,0.00
2009,03,02,17,30,0.00
2009,03,02,17,31,0.00
2009,03,02,17,32,0.00
2009,03,02,17,33,0.00
2009,03,02,17,34,0.00
2009,03,02,17,35,0.00
2009,03,02,17,36,0.00
2009,03,02,17,37,0.00
2009,03,02,17,38,0.00
2009,03,02,17,39,0.00
2009,03,02,17,40,0.00
2009,03,02,17,41,0.00
2009,03,02,17,42,0.00
2009,03,02,17,43,0.00
2009,03,02,17,44,0.00
2009,03,02,17,45,0.00
2009,03,02,17,46,0.00
2009,03,02,17,47,0.00
2009,03,02,17,48,0.00
2009,03,02,17,49,1.60
2009,03,02,17,50,4.70
2009,03,02,17,51,0.70
2009,03,02,17,52,0.30
2009,03,02,17,53,0.30
2009,03,02,17,54,1.40
2009,03,02,17,55,0.00
2009,03,02,17,56,0.00
2009,03,02,17,57,0.00
2009,03,02,17,58,0.00
2009,03,02,17,59,0.00
2009,03,02,18,00,0.00
2009,03,02,18,01,0.00
2009,03,02,18,02,0.00